Middletown, OH

10:49 PM EDT on July 27, 2017 (GMT -0400)
Hook Field Municipal

Weather History for KMWO - November, 2012

Change the Weather History Date:

Thursday, November 15, 2012

  Actual Average (KFFO) Record (KFFO)
Temperature  
Mean Temperature 36 °F -  
Max Temperature 47 °F 50 °F 69 °F (2005)
Min Temperature 25 °F 32 °F 16 °F (2014)
Degree Days  
Heating Degree Days 29    
Moisture  
Dew Point 31 °F    
Average Humidity 87    
Maximum Humidity 100    
Minimum Humidity 59    
Precipitation  
Precipitation 0.00 in - - ()
Sea Level Pressure  
Sea Level Pressure 30.37 in    
Wind  
Wind Speed 1 mph (NNE)    
Max Wind Speed 5 mph    
Max Gust Speed -    
Visibility 7 miles    
Events      
Averages and records for this station are not official NWS values.
T = Trace of Precipitation, MM = Missing Value Source: NWS Daily Summary

Daily Weather History Graph

Daily Weather History Graph

Search for Another Location

Airport or City:

Trip Planner

Search our weather history database for the weather conditions in past years. The results will help you decide how hot, cold, wet, or windy it might be!

Date:

Astronomy

Nov. 15, 2012 Rise Set
Actual Time 7:22 AM EST 5:21 PM EST
Civil Twilight 6:53 AM EST 5:50 PM EST
Nautical Twilight 6:20 AM EST 6:23 PM EST
Astronomical Twilight 5:49 AM EST 6:55 PM EST
Moon 9:16 AM EST (11/15) 7:12 PM EST (11/15)
Length of Visible Light 10h 57m
Length of Day
9h 59m
Waxing Crescent, 5% of the Moon is Illuminated
Nov 15
Waxing Crescent
Nov 20
First Quarter
Nov 28
Full
Dec 6
Last Quarter
Dec 13
New

Hourly Weather History & Observations

Time (EST) Temp. Windchill Dew Point Humidity Pressure Visibility Wind Dir Wind Speed Gust Speed Precip Events Conditions
12:15 AM 29.5 °F - 29.5 °F 100% 30.40 in 7.0 mi Calm Calm - N/A   Clear
12:35 AM 30.0 °F - 30.0 °F 100% 30.39 in 5.0 mi Calm Calm - N/A   Clear
12:55 AM 27.9 °F - 27.9 °F 100% 30.39 in 5.0 mi Calm Calm - N/A   Clear
1:15 AM 27.9 °F - 27.9 °F 100% 30.37 in 5.0 mi Calm Calm - N/A   Clear
1:35 AM 27.9 °F - 27.9 °F 100% 30.37 in 5.0 mi Calm Calm - N/A   Clear
1:55 AM 27.9 °F - 27.9 °F 100% 30.37 in 4.0 mi Calm Calm - N/A   Clear
2:15 AM 27.9 °F - 27.9 °F 100% 30.37 in 7.0 mi Calm Calm - N/A   Clear
2:35 AM 27.9 °F - 27.9 °F 100% 30.37 in 7.0 mi Calm Calm - N/A   Clear
2:55 AM 27.9 °F 24.0 °F 27.9 °F 100% 30.36 in 7.0 mi NNE 3.5 mph - N/A   Clear
3:15 AM 27.9 °F 22.6 °F 27.9 °F 100% 30.36 in 5.0 mi NNE 4.6 mph - N/A   Clear
3:35 AM 27.9 °F 24.0 °F 27.9 °F 100% 30.36 in 5.0 mi NNE 3.5 mph - N/A   Clear
3:55 AM 27.9 °F 24.0 °F 27.9 °F 100% 30.35 in 4.0 mi NNE 3.5 mph - N/A   Clear
4:15 AM 27.9 °F - 27.9 °F 100% 30.35 in 5.0 mi Calm Calm - N/A   Clear
4:35 AM 27.9 °F - 27.9 °F 100% 30.36 in 5.0 mi Calm Calm - N/A   Clear
4:55 AM 27.9 °F 24.0 °F 27.9 °F 100% 30.37 in 5.0 mi NE 3.5 mph - N/A   Clear
5:15 AM 27.9 °F - 27.9 °F 100% 30.37 in 5.0 mi Calm Calm - N/A   Clear
5:35 AM 27.9 °F 22.6 °F 27.9 °F 100% 30.38 in 4.0 mi North 4.6 mph - N/A   Clear
5:55 AM 27.9 °F - 27.9 °F 100% 30.38 in 4.0 mi Calm Calm - N/A   Clear
6:15 AM 26.6 °F - 26.6 °F 100% 30.38 in 4.0 mi Calm Calm - N/A   Clear
6:35 AM 27.9 °F 24.0 °F 27.9 °F 100% 30.37 in 5.0 mi NE 3.5 mph - N/A   Clear
6:55 AM 27.9 °F 24.0 °F 27.9 °F 100% 30.38 in 4.0 mi North 3.5 mph - N/A   Clear
7:15 AM 27.9 °F 24.0 °F 27.9 °F 100% 30.39 in 3.0 mi North 3.5 mph - N/A   Clear
7:35 AM 25.3 °F - 25.3 °F 100% 30.40 in 2.5 mi Calm Calm - N/A   Clear
7:55 AM 26.2 °F - 26.2 °F 100% 30.40 in 2.5 mi Calm Calm - N/A   Clear
8:15 AM 27.9 °F - 27.9 °F 100% 30.40 in 3.0 mi Calm Calm - N/A   Clear
8:35 AM 28.8 °F - 28.8 °F 100% 30.40 in 4.0 mi Calm Calm - N/A   Clear
8:55 AM 32.2 °F 27.7 °F 31.6 °F 98% 30.40 in 5.0 mi North 4.6 mph - N/A   Clear
9:15 AM 32.5 °F 29.3 °F 32.0 °F 98% 30.40 in 5.0 mi NNE 3.5 mph - N/A   Clear
9:35 AM 32.5 °F - 30.7 °F 93% 30.40 in 7.0 mi Calm Calm - N/A   Clear
9:55 AM 35.1 °F 32.2 °F 32.0 °F 89% 30.40 in 7.0 mi East 3.5 mph - N/A   Clear
10:15 AM 36.9 °F 34.3 °F 32.5 °F 84% 30.40 in 7.0 mi ENE 3.5 mph - N/A   Clear
10:35 AM 37.9 °F 35.5 °F 32.7 °F 81% 30.40 in 10.0 mi East 3.5 mph - N/A   Clear
10:55 AM 38.7 °F - 32.0 °F 77% 30.40 in 10.0 mi Calm Calm - N/A   Clear
11:15 AM 39.7 °F 36.5 °F 32.2 °F 74% 30.39 in 10.0 mi East 4.6 mph - N/A   Clear
11:35 AM 41.2 °F 38.2 °F 32.0 °F 70% 30.38 in 10.0 mi ENE 4.6 mph - N/A   Clear
11:55 AM 41.4 °F 38.4 °F 31.8 °F 69% 30.38 in 10.0 mi ENE 4.6 mph - N/A   Clear
12:15 PM 43.0 °F 40.3 °F 32.5 °F 67% 30.38 in 10.0 mi ENE 4.6 mph - N/A   Clear
12:35 PM 44.8 °F 43.3 °F 33.8 °F 65% 30.37 in 10.0 mi NNE 3.5 mph - N/A   Clear
12:55 PM 45.1 °F - 34.0 °F 65% 30.36 in 10.0 mi Calm Calm - N/A   Clear
1:15 PM 45.1 °F - 33.8 °F 65% 30.36 in 10.0 mi Calm Calm - N/A   Clear
1:35 PM 47.7 °F - 36.0 °F 64% 30.35 in 10.0 mi East 3.5 mph - N/A   Clear
1:55 PM 47.7 °F - 35.2 °F 62% 30.35 in 10.0 mi Calm Calm - N/A   Clear
2:15 PM 47.7 °F - 35.1 °F 62% 30.34 in 10.0 mi Calm Calm - N/A   Clear
2:35 PM 47.7 °F - 34.3 °F 60% 30.33 in 10.0 mi Calm Calm - N/A   Clear
2:55 PM 47.7 °F - 34.7 °F 61% 30.33 in 10.0 mi North 3.5 mph - N/A   Clear
3:15 PM 47.7 °F - 34.2 °F 60% 30.33 in 10.0 mi Calm Calm - N/A   Clear
3:35 PM 47.7 °F - 34.5 °F 60% 30.33 in 10.0 mi Calm Calm - N/A   Clear
3:55 PM 47.7 °F - 33.8 °F 59% 30.33 in 10.0 mi NNE 3.5 mph - N/A   Clear
4:15 PM 47.7 °F - 34.7 °F 61% 30.33 in 10.0 mi Calm Calm - N/A   Clear
4:35 PM 45.1 °F - 34.3 °F 66% 30.33 in 10.0 mi Calm Calm - N/A   Clear
4:55 PM 45.1 °F - 33.8 °F 65% 30.33 in 10.0 mi Calm Calm - N/A   Clear
5:15 PM 44.8 °F - 35.8 °F 71% 30.33 in 10.0 mi Calm Calm - N/A   Clear
5:35 PM 41.5 °F - 34.5 °F 76% 30.33 in 10.0 mi Calm Calm - N/A   Clear
5:55 PM 39.2 °F - 35.6 °F 87% 30.33 in 10.0 mi Calm Calm - N/A   Clear
6:15 PM 37.8 °F 35.3 °F 34.5 °F 88% 30.34 in 10.0 mi NNW 3.5 mph - N/A   Clear
6:35 PM 37.6 °F 34.0 °F 34.5 °F 89% 30.34 in 10.0 mi North 4.6 mph - N/A   Clear
6:55 PM 37.6 °F 34.0 °F 34.7 °F 89% 30.35 in 10.0 mi North 4.6 mph - N/A   Clear
7:15 PM 37.6 °F 34.0 °F 34.0 °F 87% 30.35 in 10.0 mi North 4.6 mph - N/A   Clear
7:35 PM 37.6 °F 34.0 °F 34.0 °F 87% 30.36 in 10.0 mi North 4.6 mph - N/A   Clear
7:55 PM 35.8 °F 31.9 °F 32.4 °F 87% 30.36 in 10.0 mi North 4.6 mph - N/A   Clear
8:15 PM 35.8 °F 31.9 °F 32.5 °F 88% 30.36 in 10.0 mi North 4.6 mph - N/A   Clear
8:35 PM 35.4 °F - 32.2 °F 88% 30.36 in 10.0 mi Calm Calm - N/A   Clear
8:55 PM 35.1 °F 31.0 °F 32.4 °F 90% 30.37 in 10.0 mi ENE 4.6 mph - N/A   Clear
9:15 PM 35.1 °F - 33.1 °F 92% 30.37 in 7.0 mi Calm Calm - N/A   Clear
9:35 PM 33.4 °F - 32.0 °F 94% 30.37 in 7.0 mi Calm Calm - N/A   Clear
9:55 PM 32.5 °F - 32.2 °F 99% 30.38 in 5.0 mi Calm Calm - N/A   Clear
10:15 PM 32.5 °F - 32.0 °F 98% 30.38 in 7.0 mi Calm Calm - N/A   Clear
10:35 PM 32.5 °F - 32.4 °F 99% 30.38 in 5.0 mi Calm Calm - N/A   Clear
10:55 PM 32.5 °F 29.3 °F 32.5 °F 100% 30.37 in 5.0 mi NNE 3.5 mph - N/A   Clear
11:15 PM 32.5 °F 28.1 °F 31.8 °F 97% 30.38 in 7.0 mi North 4.6 mph - N/A   Clear
11:35 PM 32.5 °F 28.1 °F 32.0 °F 98% 30.38 in 7.0 mi NNE 4.6 mph - N/A   Clear
11:55 PM 32.5 °F 28.1 °F 32.0 °F 98% 30.38 in 7.0 mi NE 4.6 mph - N/A   Clear